Theta_e
311 309 309 308 308 307 307 305 304 304 305 306 307 309 309 310 310 311 307 308 308 309 310 310 311 312 311 312 311 310 308 309 305 307 309 311 312 312 316 317 321 319 318
307 307 307 306 305 307 304 305 306 305 305 305 306 306 307 309 306 306 308 310 308 309 310 311 311 315 311 311 310 310 309 309 307 304 306 309 310 312 313 313 317 321 318
306 305 305 305 306 303 305 306 306 305 304 304 304 305 307 307 307 308 310 311 309 310 311 311 312 312 310 310 311 310 309 311 309 308 308 311 312 312 311 312 312 314 319
306 304 304 303 305 304 305 305 304 305 304 303 304 305 306 307 307 308 308 308 310 312 313 313 313 313 312 313 311 310 312 311 310 309 308 308 309 311 310 309 308 312 313
305 304 304 307 305 304 304 304 304 304 304 304 305 305 306 306 308 307 309 308 309 310 314 316 314 316 319 315 313 310 310 306 306 306 306 306 307 310 309 310 308 310 312
305 305 306 305 305 305 304 304 303 303 303 303 304 305 306 308 306 307 307 304 308 310 313 314 314 316 314 313 313 313 309 304 302 303 304 305 305 307 308 308 308 309 305
306 308 308 306 305 304 304 303 301 302 302 303 306 304 306 305 305 304 306 304 304 309 313 315 314 315 312 311 312 313 313 313 311 310 309 309 307 310 311 308 307 308 304
307 310 307 306 305 304 302 301 301 302 302 305 307 306 307 308 304 303 303 303 306 313 312 312 309 311 310 309 308 311 314 314 311 313 310 311 313 310 311 312 311 313 314
308 307 307 306 305 304 303 301 301 301 302 303 307 306 304 304 304 302 303 303 310 312 316 313 310 307 304 306 313 311 312 310 311 309 307 307 307 308 313 315 308 310 308
308 308 308 307 306 304 303 301 301 302 304 305 305 305 307 304 303 302 302 305 307 312 310 309 308 307 302 305 310 310 307 307 309 309 313 313 312 311 314 311 310 308 310
309 310 307 306 305 305 302 301 302 303 303 303 304 304 304 305 305 302 300 307 311 310 308 305 305 303 303 303 304 306 306 305 310 313 313 311 311 311 312 310 310 312 306
309 308 306 306 307 306 301 302 304 303 301 301 299 298 299 306 304 305 299 304 307 312 309 307 306 301 301 301 303 300 302 309 311 310 311 310 310 310 311 314 312 312 311
309 306 305 307 308 306 302 302 302 301 299 299 299 297 297 300 307 303 303 302 303 307 311 309 304 300 299 301 302 302 304 311 310 308 311 310 310 311 313 312 312 313 312
306 307 305 305 306 304 304 303 302 300 298 298 298 296 296 298 301 300 301 303 307 308 305 303 303 303 303 304 306 306 306 312 312 311 308 309 313 313 311 310 310 313 309
307 307 305 306 306 303 305 304 303 303 301 298 299 297 295 297 300 295 296 299 298 298 296 304 303 307 306 307 308 308 311 311 310 312 311 310 311 312 311 312 312 311 310
307 307 305 305 306 307 304 303 301 300 298 298 298 298 299 297 296 297 297 297 295 294 300 305 304 304 307 307 307 307 310 312 313 314 314 312 310 312 314 313 311 312 311
306 307 305 305 305 306 305 303 300 302 296 296 295 294 292 297 292 296 297 296 292 293 303 304 305 305 306 308 306 306 308 311 311 311 312 312 313 311 311 312 313 310 311
307 306 308 306 306 305 306 306 303 301 300 299 296 295 293 293 293 292 295 295 301 297 302 303 306 307 305 306 310 309 306 311 309 312 311 312 313 313 310 310 312 311 309
309 309 306 306 307 307 307 306 304 303 302 302 302 294 294 293 292 291 293 299 304 303 304 304 304 305 307 307 306 308 310 309 308 307 307 310 314 313 309 309 306 305 306
310 306 305 307 307 306 306 305 304 303 304 306 302 302 298 297 296 296 296 302 305 306 307 306 306 306 307 308 307 308 308 309 308 308 305 305 312 312 309 307 307 309 310
312 310 304 308 308 308 307 305 306 305 305 304 304 303 295 300 300 300 302 304 307 308 307 308 308 309 311 307 307 308 309 312 310 308 306 305 305 310 309 311 311 308 309
312 314 314 312 313 312 309 308 307 307 307 306 304 304 291 302 302 303 304 307 309 311 311 310 310 311 309 309 308 307 307 308 309 310 310 311 309 307 305 307 310 310 308
309 310 310 311 312 308 310 310 309 308 308 308 306 306 296 302 304 303 303 302 302 305 313 311 312 312 312 314 310 309 307 309 310 310 312 312 311 310 309 307 308 308 308
301 302 306 310 311 310 310 310 310 304 308 308 308 308 307 301 302 303 303 303 303 303 308 310 311 312 311 314 311 313 312 313 315 312 313 312 313 309 309 309 310 309 308
298 300 300 300 300 305 309 309 309 310 310 309 308 308 308 307 307 306 306 306 305 305 305 309 313 314 313 314 313 312 303 294 310 304 315 312 311 310 311 308 307 308 309
293 293 294 297 299 299 299 302 307 307 308 309 310 310 309 309 309 309 307 307 306 305 304 303 303 300 298 300 292 295 292 291 302 298 313 313 308 310 311 311 310 308 308
Wind_Speed
6 6 7 4 3 3 3 4 5 4 6 6 7 9 9 7 9 6 6 7 7 7 6 6 7 7 5 4 4 4 4 4 5 3 3 2 4 5 5 3 5 4 4
5 6 4 2 3 1 2 5 6 6 6 6 6 7 9 9 7 8 10 7 7 6 7 6 7 5 7 6 4 6 5 5 5 7 4 4 6 6 5 5 4 3 4
6 5 2 4 1 1 5 6 6 7 7 7 7 8 10 10 9 11 10 7 6 6 7 7 8 6 6 5 5 5 4 4 4 4 4 3 4 3 4 4 4 5 4
4 3 6 5 4 2 4 5 7 7 7 8 8 8 9 9 6 6 6 6 6 6 9 8 7 7 6 6 5 5 5 4 3 3 3 4 4 4 2 3 4 2 4
3 5 8 2 2 2 5 6 7 6 7 7 9 9 8 6 3 5 4 6 6 8 9 6 6 6 5 4 2 1 3 1 0 2 3 3 3 3 4 3 3 2 2
5 7 5 6 2 2 5 6 7 7 7 7 8 7 8 5 4 9 9 6 7 8 7 4 5 9 9 10 8 4 2 3 3 3 3 5 5 4 3 3 4 2 3
6 7 4 4 1 3 5 5 7 8 7 6 7 7 8 3 7 9 12 6 7 7 6 4 4 4 5 5 5 4 6 10 10 3 3 4 4 4 4 3 3 3 2
7 3 4 3 3 4 4 5 7 5 6 7 4 4 5 3 6 9 12 7 6 7 5 6 6 5 5 5 2 4 4 3 3 3 5 4 1 3 5 5 5 5 5
7 2 4 3 3 4 6 6 7 5 5 5 6 4 2 6 9 10 10 7 6 4 7 7 6 5 3 6 4 5 4 5 8 9 6 8 9 10 6 7 4 8 3
7 3 6 4 2 4 5 7 4 4 5 4 6 5 3 3 7 10 8 5 3 5 6 6 6 6 4 6 4 2 5 4 4 3 4 6 6 7 5 4 5 7 6
6 2 6 5 5 5 5 4 4 5 5 4 5 5 5 4 5 8 6 4 2 4 4 2 1 5 6 3 7 6 2 2 3 2 4 4 3 4 4 2 2 8 4
6 4 2 4 5 3 5 6 6 5 4 3 3 5 5 6 6 6 6 7 3 2 4 3 2 4 2 4 4 3 2 3 3 2 1 1 1 2 1 4 5 3 4
4 5 3 5 5 5 5 7 3 3 1 3 1 3 4 5 3 8 6 8 5 1 2 5 7 5 2 4 5 3 3 1 3 3 1 1 2 1 3 4 5 5 7
6 6 5 4 6 6 5 5 3 4 2 2 2 2 3 4 3 4 4 4 7 6 5 2 2 3 6 6 4 1 1 2 3 2 1 1 2 2 2 3 3 3 3
6 6 6 4 5 6 6 5 5 6 6 4 3 3 1 3 2 1 3 3 3 2 4 0 0 2 3 3 4 2 4 3 2 2 2 2 2 3 3 3 2 2 3
6 5 5 4 5 5 5 5 8 9 10 9 8 6 4 8 5 3 5 5 5 6 2 2 2 3 4 4 4 2 3 4 3 4 3 3 4 4 3 3 2 2 3
7 7 5 6 5 5 5 5 5 5 8 9 10 10 9 7 5 5 7 8 9 6 2 2 2 3 3 2 2 0 0 2 6 4 3 3 4 3 4 4 4 3 3
9 12 6 6 6 5 5 5 5 4 4 5 11 12 13 12 10 7 7 4 3 2 4 3 4 4 3 3 2 1 1 2 3 5 4 5 4 4 3 3 5 4 4
8 7 7 7 7 8 7 6 6 6 5 5 3 4 12 11 8 5 6 4 4 5 5 5 5 5 4 5 4 4 3 3 3 3 4 5 6 4 4 4 4 10 9
9 13 11 8 8 8 7 8 6 6 7 7 5 7 4 6 5 6 6 6 6 6 5 5 4 5 5 5 5 5 4 3 4 4 4 4 4 4 4 4 5 6 9
7 7 11 8 8 9 9 9 9 8 9 6 6 6 12 11 10 8 8 8 8 7 6 6 5 5 4 4 5 5 4 4 4 3 3 3 3 3 3 4 4 5 6
11 9 6 6 4 7 10 10 11 12 11 10 6 6 14 10 9 9 10 9 9 9 7 7 6 5 5 5 5 5 5 5 5 5 4 2 1 3 3 3 4 4 5
14 10 9 10 10 12 11 11 12 13 13 12 9 8 7 10 9 9 8 6 6 6 9 8 7 6 5 5 6 6 6 6 7 6 6 5 4 2 2 3 3 5 4
15 15 17 13 12 13 13 13 12 14 16 14 13 11 9 10 11 11 7 5 6 6 6 8 7 9 6 5 5 5 5 5 4 7 10 7 6 5 2 2 2 4 4
15 14 13 13 15 16 13 14 12 13 11 10 10 10 7 9 6 5 4 3 3 5 5 2 6 10 12 10 8 7 6 7 7 6 6 7 8 9 4 4 2 2 5
12 12 15 16 13 13 13 16 14 12 14 10 9 9 8 8 11 10 8 5 4 6 7 7 8 13 14 11 11 3 9 8 5 7 5 3 3 5 4 5 6 3 4
Wind_Direction
80 79 81 69 51 41 48 354 337 296 292 294 293 298 293 280 293 291 280 261 264 257 259 245 242 237 238 223 199 193 207 179 210 282 221 280 220 233 275 249 235 222 240
92 84 91 42 10 154 353 290 274 274 279 280 284 291 293 289 289 280 284 282 261 269 260 252 250 246 241 214 203 206 206 190 173 235 230 244 226 227 218 231 243 227 229
62 52 335 289 12 244 279 303 312 302 298 294 291 287 295 304 297 316 281 270 291 268 261 245 250 236 235 223 210 205 208 210 202 199 247 231 233 219 228 248 240 247 237
48 326 292 300 182 279 306 311 316 303 307 303 295 286 282 281 299 308 317 307 293 289 281 249 234 234 230 210 200 209 218 218 209 203 231 242 227 239 214 234 279 259 248
316 294 283 143 92 17 336 322 307 314 307 300 303 301 298 292 329 323 328 311 309 305 304 284 229 220 149 123 185 103 117 120 237 239 245 230 235 233 208 207 209 178 66
281 281 293 109 68 347 326 308 308 306 304 305 304 298 300 307 332 349 339 327 306 296 299 8 101 102 102 101 95 96 157 195 228 213 233 227 239 224 205 177 144 129 103
290 286 70 134 30 314 317 319 315 306 307 304 319 319 317 32 16 343 326 306 295 286 290 185 104 111 112 89 24 325 276 231 211 211 258 244 233 210 167 115 112 120 145
299 5 124 90 345 315 309 308 301 293 304 309 320 340 335 338 344 347 333 298 294 271 263 162 108 94 107 84 8 326 346 54 222 222 242 285 314 198 140 140 134 104 81
294 128 141 130 308 313 309 283 288 299 307 317 313 347 10 329 335 328 339 313 290 308 96 101 113 127 93 28 30 11 79 55 50 62 77 62 53 42 99 121 106 124 111
280 222 176 187 258 282 270 276 272 286 274 317 323 330 294 309 315 329 352 301 350 60 68 85 122 125 117 56 39 72 98 82 96 60 43 38 77 43 70 49 134 129 125
269 212 189 198 235 262 247 265 279 280 293 317 320 332 336 331 337 350 328 305 40 89 107 107 80 117 131 79 56 59 75 15 102 99 92 55 27 31 68 119 121 138 131
260 223 225 232 246 235 252 281 295 273 289 295 349 354 339 316 19 332 281 297 358 116 158 184 192 149 113 11 37 351 25 96 129 128 19 256 261 320 97 121 130 86 78
241 215 233 276 284 244 241 271 302 261 324 315 328 352 333 315 10 23 25 332 327 240 122 172 210 179 308 318 261 260 41 152 126 115 166 294 93 153 76 76 60 56 74
225 218 232 268 283 256 259 244 241 241 244 291 288 328 315 308 355 356 350 349 26 56 32 44 168 226 263 278 312 248 188 139 132 157 186 49 84 76 115 137 121 124 101
224 221 230 248 258 257 252 236 230 232 183 198 223 199 220 296 270 249 297 347 12 30 326 98 33 268 281 291 299 268 201 138 100 120 119 141 151 130 121 140 110 78 149
219 219 223 226 248 267 268 278 247 233 197 198 188 185 229 222 234 279 245 257 283 300 158 185 246 237 246 242 255 253 203 176 155 170 171 165 157 141 156 168 136 171 151
204 213 217 221 236 246 263 252 259 293 213 210 211 211 216 230 206 241 255 271 255 204 218 237 221 242 249 292 275 192 175 212 165 206 193 207 182 175 171 168 182 160 170
205 207 203 212 219 231 238 242 225 221 232 250 225 212 217 225 238 224 237 289 250 218 206 226 234 237 215 226 266 231 256 299 153 187 198 221 228 182 188 185 176 187 170
207 212 209 213 216 223 235 238 222 235 232 235 203 177 219 213 221 218 234 230 230 230 211 221 221 231 236 215 226 240 219 235 253 195 183 177 214 224 250 224 177 192 167
215 210 203 212 219 221 218 221 227 225 237 243 201 211 155 139 198 206 205 223 217 233 239 221 217 205 213 220 214 212 219 225 234 227 225 197 186 211 186 208 186 149 171
224 220 216 218 230 234 232 230 227 225 230 220 217 200 183 183 204 206 206 204 217 222 219 215 221 222 209 232 216 221 200 215 215 199 202 223 193 194 191 182 183 158 151
332 324 293 277 273 271 256 238 231 227 226 225 222 202 184 198 199 204 208 207 206 216 216 215 207 214 206 197 211 201 202 211 207 187 187 193 182 220 178 176 181 195 172
321 298 296 293 277 266 266 257 244 233 227 215 208 213 173 204 207 211 210 203 196 201 222 213 212 214 211 208 195 186 202 205 200 180 178 184 189 199 119 202 198 203 185
325 333 321 284 271 267 263 263 265 255 238 223 217 206 203 189 206 209 200 211 221 205 201 206 203 197 204 219 212 205 196 204 171 189 187 187 197 186 166 83 196 130 177
328 316 306 310 318 310 280 264 269 271 256 230 232 221 162 150 148 145 128 89 71 69 28 309 218 208 198 200 199 210 174 202 155 172 184 177 187 183 179 155 149 129 115
322 324 327 318 299 306 303 310 272 244 253 232 212 221 200 195 174 169 134 125 136 96 76 60 49 46 38 45 25 331 167 188 166 125 111 134 207 162 168 130 142 151 147